Flag for U.S.A. Weather past 2 weeks in Springfield, Missouri, U.S.A.

Now
89 °F

Sunny.


Feels Like: 96 °F
Forecast: 77 / 93 °F
Wind: 12 mph from Southwest

Location: Springfield Regional Airport

Current Time: Jul 28, 2015 at 11:30:42 AM

Latest Report: Jul 28, 2015 at 10:52 AM


Visibility: 10 mi

Pressure: 29.96 "Hg

Humidity: 57%

Dew point: 72 °F

Location of SpringfieldLocation

Historic Weather in Springfield — Graph

°F

Springfield temperature yesterday

Maximum temperature yesterday: 93 °F (at 1:52 PM)
Minimum temperature yesterday: 76 °F (at 6:52 AM)
Average temperature yesterday: 85 °F

Past Weeks' High & Low Weather Summary

 TemperatureHumidityPressure
High93 °F (Jul 13, 2:52 PM)96% (Jul 23, 4:52 AM)30.01 "Hg (Jul 23, 4:52 AM)
Low70 °F (Jul 25, 5:52 AM)46% (Jul 27, 2:52 PM)29.74 "Hg (Jul 14, 1:52 AM)
Average82 °F74%29.89 "Hg
* Reported Jul 13 9:52 AM — Jul 28 9:52 AM, Springfield, Weather by CustomWeather, © 2015

Note: Actual official high and low records may vary slightly from our data, if they occured in-between our weather recording intervals... More about our weather records

Advertising

Springfield weather history for previous 24 hours

 ConditionsComfort  
Time TempWeatherWind HumidityBarometerVisibility
9:52 AM
Tue, Jul 28
87 °FSunny.9 mph63%29.96 "Hg10 mi
8:52 AM84 °FSunny.10 mph70%29.94 "Hg10 mi
7:52 AM80 °FSunny.9 mph76%29.93 "Hg10 mi
6:52 AM77 °FClear.7 mph88%29.92 "Hg10 mi
5:52 AM77 °FClear.7 mph88%29.90 "Hg10 mi
4:52 AM78 °FClear.8 mph84%29.89 "Hg10 mi
3:52 AM79 °FClear.8 mph82%29.88 "Hg10 mi
2:52 AM80 °FClear.8 mph81%29.89 "Hg10 mi
1:52 AM80 °FClear.9 mph85%29.91 "Hg10 mi
12:52 AM81 °FClear.7 mph82%29.90 "Hg10 mi
11:52 PM
Mon, Jul 27
82 °FClear.10 mph79%29.91 "Hg10 mi
10:52 PM83 °FClear.8 mph77%29.92 "Hg10 mi
9:52 PM84 °FClear.7 mph74%29.91 "Hg10 mi
8:52 PM84 °FSunny.8 mph72%29.89 "Hg10 mi
7:52 PM88 °FSunny.6 mph65%29.88 "Hg10 mi
6:52 PM90 °FSunny.7 mph61%29.87 "Hg10 mi
5:52 PM92 °FPassing clouds.10 mph56%29.87 "Hg10 mi
4:52 PM91 °FPartly sunny.6 mph57%29.88 "Hg10 mi
3:52 PM92 °FScattered clouds.3 mph54%29.90 "Hg10 mi
2:52 PM93 °FSunny.N/A46%29.90 "Hg10 mi
1:52 PM93 °FSunny.6 mph50%29.91 "Hg10 mi
12:52 PM91 °FPassing clouds.7 mph54%29.92 "Hg10 mi
11:52 AM90 °FSunny.5 mph57%29.93 "Hg10 mi
Weather by CustomWeather, © 2015

See weather overviewHow to use our weather pages